Regional Weather Roundup
Issued by NWS

Home | Current Version | Previous Version | Text Only | Print | Product List | Glossary On
Versions: 1 2 3 4 5 6 7 8 9 10 11 12 13 14 15 16 17 18 19 20 21 22 23 24 25 26 27 28 29 30 31 32 33 34 35 36 37 38 39 40 41 42 43 44 45 46 47 48 49 50
000
ASUS44 KBMX 241610
RWRAL

ALABAMA REGIONAL WEATHER ROUNDUP
NATIONAL WEATHER SERVICE BIRMINGHAM AL
1100 AM CDT SUN SEP 24 2017

NOTE: "FAIR" INDICATES FEW OR NO CLOUDS BELOW 12,000 FEET
WITH NO SIGNIFICANT WEATHER AND/OR OBSTRUCTIONS TO VISIBILITY.

THE REMARK "TC" DENOTES TEMPERATURE IN DEGREES CELSIUS.

ALZ001>011-014-016>018-020-241700-
NORTH ALABAMA

CITY           SKY/WX    TMP DP  RH WIND       PRES   REMARKS
MUSCLE SHOALS  SUNNY     83  67  58 VRB5      30.08F
HUNTSVILLE     MOSUNNY   82  71  69 VRB5      30.07F
DECATUR        SUNNY     81  69  67 CALM      30.07F
HALEYVILLE     FAIR      82  69  64 VRB3      30.10F
GADSDEN        SUNNY     81  70  69 NE7       30.09S
$$

ALZ012-013-022-023-030>036-040>044-241700-
WEST CENTRAL ALABAMA

CITY           SKY/WX    TMP DP  RH WIND       PRES   REMARKS
TUSCALOOSA     SUNNY     83  69  62 VRB5      30.04F
DEMOPOLIS        N/A     84  65  53 SE7       30.02S
$$

ALZ015-024>026-033>036-041>044-241700-
CENTRAL ALABAMA

CITY           SKY/WX    TMP DP  RH WIND       PRES   REMARKS
BIRMINGHAM     MOSUNNY   83  67  58 SE7       30.09S
MONTGOMERY     SUNNY     85  66  53 E8        30.03F
SHELBY CO ARPT SUNNY     81  69  67 CALM      30.06S
MAXWELL AFB    MOSUNNY   83  68  58 NE8       30.03S
GREENVILLE     FAIR      85  64  49 E10       30.01F
SELMA          FAIR      84  66  54 VRB7G14   30.02F
PRATTVILLE     FAIR      82  68  62 E8        30.03S
BESSEMER       FAIR      80  66  62 VRB3      30.07F
TALLADEGA      FAIR     N/A N/A N/A MISG      30.08S
PELL CITY      SUNNY     81  70  69 VRB5      30.08S
MARION         FAIR      82  68  62 MISG      30.02F
SYLACAUGA      FAIR      82  71  69 CALM      30.07S
$$

ALZ019-021-028-029-037-038-045>048-241700-
EAST CENTRAL ALABAMA

CITY           SKY/WX    TMP DP  RH WIND       PRES   REMARKS
ANNISTON       SUNNY     80  67  64 NE6       30.08S
ALEXANDER CITY MOSUNNY   80  68  67 E7        30.07S
AUBURN         NOT AVBL
$$

ALZ051>064-241700-
SOUTHWEST ALABAMA

CITY           SKY/WX    TMP DP  RH WIND       PRES   REMARKS
MOBILE         PTSUNNY   74  70  87 E6        30.00F
BROOKLEY FIELD CLOUDY    77  69  76 SE3       30.00F
EVERGREEN      MOSUNNY   81  67  62 NE8       30.01F
$$

ALZ049-050-065>069-241700-
SOUTHEAST ALABAMA

CITY           SKY/WX    TMP DP  RH WIND       PRES   REMARKS
DOTHAN         CLOUDY    81  68  64 E10       30.03F
OZARK          PTSUNNY   83  68  58 E10       30.00F
TROY           SUNNY     82  67  60 E14       30.03F
EUFAULA        FAIR      86  67  52 E10       30.01F
$$



USA.gov is the U.S. government's official web portal to all federal, state and local government web resources and services.